Regional Weather Roundup
Issued by NWS Mt. Holly, NJ

Home | Current Version | Previous Version | Text Only | Print | Product List | Glossary On
Versions: 1 2 3 4 5 6 7 8 9 10 11 12 13 14 15 16 17 18 19 20 21 22 23 24 25 26 27 28 29 30 31 32 33 34 35 36 37 38 39 40 41 42 43 44 45 46 47 48 49 50
000
ASUS41 KPHI 232312
RWRPHI

REGIONAL WEATHER ROUNDUP
NATIONAL WEATHER SERVICE MOUNT HOLLY NJ
700 PM EDT TUE MAY 23 2017

NOTE:  "FAIR" INDICATES FEW OR NO CLOUDS BELOW 12,000 FEET WITH NO
SIGNIFICANT WEATHER AND/OR OBSTRUCTIONS TO VISIBILITY.

 * = STATION DOES NOT REPORT PRECIPITATION (E.G. RAIN, SNOW, ETC.)
        OR FOG.

NJZ015>026-240000-
SOUTHERN NEW JERSEY

CITY           SKY/WX    TMP DP  RH WIND       PRES   REMARKS
POMONA         CLOUDY    62  49  62 E6        29.83F
WILDWOOD*      CLOUDY    60  51  72 E9        29.82F
MILLVILLE      CLOUDY    63  53  70 E5        29.82S
WRIGHTSTOWN    SUNNY     64  51  62 E3        29.82S
MOUNT HOLLY    CLOUDY    64  50  60 N5        29.83S
TRENTON        PTSUNNY   65  54  67 N5        29.84R

$$
NJZ001>014-240000-
NORTHERN NEW JERSEY

CITY           SKY/WX    TMP DP  RH WIND       PRES   REMARKS
SUSSEX         CLOUDY    64  52  64 CALM      29.85F
ANDOVER*         N/A     63  54  72 CALM      29.84F
MORRISTOWN     CLOUDY    66  50  55 CALM      29.83F
NEWARK         CLOUDY    67  49  52 S6        29.82F
TETERBORO      CLOUDY    68  47  46 NE5       29.81F
CALDWELL       CLOUDY    68  49  50 CALM      29.83F
SOMERVILLE     PTSUNNY   65  55  70 S3        29.82S
ALLAIRE*       MOSUNNY   63  48  58 E3        29.85S
TOMS RIVER*    CLOUDY    63  49  60 E5        29.84F

$$
PAZ043-044-047-054-055-060>062-066>071-240000-
EASTERN PENNSYLVANIA

CITY           SKY/WX    TMP DP  RH WIND       PRES   REMARKS
PHILADELPHIA   CLOUDY    65  51  60 E5        29.84R
NORTH PHILA    CLOUDY    65  51  60 E5        29.84F
BLUE BELL*     CLOUDY    61  52  72 CALM      29.85S
DOYLESTOWN     CLOUDY    62  54  74 CALM      29.84S
QUAKERTOWN*    CLOUDY    64  52  63 CALM      29.85S
PERKASIE*      CLOUDY    61  57  88 CALM      29.85S
POTTSTOWN      CLOUDY    63  51  65 CALM      29.85F
LANCASTER      CLOUDY    64  57  78 E3        29.83F
COATESVILLE    CLOUDY    63  54  72 CALM      29.85S
READING        CLOUDY    64  54  69 CALM      29.83S
ALLENTOWN      CLOUDY    66  50  56 SE5       29.84S
MOUNT POCONO   MOSUNNY   58  48  69 SE5       29.86S
HAZLETON       CLOUDY    61  45  55 SE3       29.88S
LEHIGHTON      FAIR      63  52  67 CALM      29.85S
WILKES BARRE   CLOUDY    67  45  45 CALM      29.83S

$$
DEZALL-MDZ008-012-015-019-020-240000-
DELAWARE AND EASTERN MARYLAND

CITY           SKY/WX    TMP DP  RH WIND       PRES   REMARKS
WILMINGTON     CLOUDY    65  55  70 NE7       29.83F
DOVER          PTSUNNY   62  59  89 E5        29.81S
GEORGETOWN     CLOUDY    61  53  75 E6        29.82F
EASTON         MOSUNNY   63  54  72 CALM      29.85F
ABERDEEN       LGT RAIN  64  59  83 NE3       29.83S
PATUXENT       LGT RAIN  60  60 100 NE6       29.80F FOG
OCEAN CITY     CLOUDY    58  54  86 NE9       29.81F
WALLOPS ISLAND LGT RAIN  58  58 100 NE9       29.80S
CAMBRIDGE      PTSUNNY   61  54  77 E7        29.80F
SALISBURY      LGT RAIN  59  55  87 E9        29.80F

$$
PAZ001-021-NYZ056-072-MDZ011-DCZ001-240000-
OTHER NEARBY LOCATIONS

CITY           SKY/WX    TMP DP  RH WIND       PRES   REMARKS
HARRISBURG     CLOUDY    64  55  72 CALM      29.82F
STATE COLLEGE  SUNNY     64  46  52 CALM      29.82F
WILLIAMSPORT   CLOUDY    67  48  50 SE6       29.80F
BINGHAMTON     CLOUDY    66  45  46 S6        29.82F
NEW YORK CITY  PTSUNNY   67  47  48 CALM      29.85F
BALTIMORE      LGT RAIN  63  59  87 E7        29.81F
WASHINGTON DC  LGT RAIN  64  60  87 E7        29.81F

$$



USA.gov is the U.S. government's official web portal to all federal, state and local government web resources and services.